User: anonymous   Login
Location: Molveno
(46.1500°N, 10.9667°E)
Time: 21:40:30
(UTC+00:00)
Language:

Cosmos 1943 Rocket - Orbit

View from above orbital plane
View from above orbital plane
View from above satellite
View from above satellite

Ground track
Ground track

The orbit data is extracted from the following two-line orbital elements,

1 19120U 88039B   20272.44363889 -.00000032 +00000-0 +74614-5 0  9992
2 19120 071.0128 310.9018 0020789 154.8750 205.3391 14.19207834676261
Epoch (UTC): 28 September 2020 10:38:50
Eccentricity: 0.0020789
inclination: 71.0128°
perigee height: 813 km
apogee height: 843 km
right ascension of ascending node: 310.9018°
argument of perigee: 154.8750°
revolutions per day: 14.19207834
mean anomaly at epoch: 205.3391°
orbit number at epoch: 67626

The dashed part of the orbit path shows where the satellite is in the earth's shadow,  

DLR